User: anonymous   Login
Location: Tauranga
(37.6860°S, 176.1670°E)
Time: 19:38:36
(UTC+13:00)
Language:

Cosmos 1939 Rocket - Orbit

View from above orbital plane
View from above orbital plane
View from above satellite
View from above satellite

Ground track
Ground track

The orbit data is extracted from the following two-line orbital elements,

1 19046U 88032B   19290.47500520  .00000126  00000-0  13826-4 0  9998
2 19046  97.4285 317.0655 0035265 318.8622  40.9946 15.02630445700611
Epoch (UTC): 17 October 2019 11:24:00
Eccentricity: 0.0035265
inclination: 97.4285°
perigee height: 534 km
apogee height: 583 km
right ascension of ascending node: 317.0655°
argument of perigee: 318.8622°
revolutions per day: 15.02630445
mean anomaly at epoch: 40.9946°
orbit number at epoch: 70061

The dashed part of the orbit path shows where the satellite is in the earth's shadow,  

DLR